logo tempoitalia

Diretta Meteo Duesseldorf, Germanialunedì 31 agosto ore 07:20

Mappa
Sereno 17 °C Sereno 24 Ore: T.min 17 T.max 23
Ponente Sud/Sud-Ovest Km/h 16.7 Punto di rugiada: 14 °C Umidità: 82% Visibilità: 10 Km
Il sole sorge alle: 06:44 Il sole tramonta alle: 20:22
31 Agosto 2026 07:20 tempo osservato: Sereno Sereno 17 82 1010 vento: Nord S/SO 16.7
31 Agosto 2026 06:50 tempo osservato: Sereno Sereno 17 82 1010 vento: Nord S/SO 20.3
31 Agosto 2026 06:20 tempo osservato: Sereno Sereno 17 82 1010 vento: Nord S/SO 18.5
31 Agosto 2026 05:50 tempo osservato: Sereno Sereno 17 88 1010 vento: Nord S/SO 18.5
31 Agosto 2026 05:20 tempo osservato: Sereno Sereno 17 88 1010 vento: Nord S/SO 18.5
31 Agosto 2026 04:50 tempo osservato: Poco Nuvoloso Poco Nuvoloso 17 82 1010 vento: Nord S 13
31 Agosto 2026 04:20 tempo osservato: Poco Nuvoloso Poco Nuvoloso 17 88 1010 vento: Nord S 13
31 Agosto 2026 03:50 tempo osservato: Pioggia Pioggia 17 88 1010 vento: Nord S/SO 27.8
31 Agosto 2026 03:20 tempo osservato: Sereno Sereno 18 72 1010 vento: Nord S/SE 16.7
31 Agosto 2026 02:50 tempo osservato: Sereno Sereno 18 77 1010 vento: Nord S/SE 11.1
31 Agosto 2026 02:20 tempo osservato: Sereno Sereno 18 77 1010 vento: Nord S 13
31 Agosto 2026 01:50 tempo osservato: Sereno Sereno 18 77 1010 vento: Nord S/SE 14.8
31 Agosto 2026 01:20 tempo osservato: Sereno Sereno 19 72 1010 vento: Nord S/SE 16.7
31 Agosto 2026 00:50 tempo osservato: Sereno Sereno 19 72 1010 vento: Nord S/SE 14.8
31 Agosto 2026 00:20 tempo osservato: Sereno Sereno 19 72 1011 vento: Nord S/SE 14.8
30 Agosto 2026 23:50 tempo osservato: Sereno Sereno 19 72 1011 vento: Nord S/SE 11.1
30 Agosto 2026 23:20 tempo osservato: Sereno Sereno 19 72 1011 vento: Nord S/SE 13
30 Agosto 2026 22:50 tempo osservato: Sereno Sereno 19 72 1011 vento: Nord S/SE 11.1
30 Agosto 2026 22:20 tempo osservato: Sereno Sereno 20 68 1011 vento: Nord S/SE 9.3
30 Agosto 2026 21:50 tempo osservato: Molto Nuvoloso Molto Nuvoloso 20 68 1011 vento: Nord S 7.4
30 Agosto 2026 21:20 tempo osservato: Sereno Sereno 19 72 1012 vento: Nord S 7.4
30 Agosto 2026 20:50 tempo osservato: Sereno Sereno 20 64 1012 vento: Nord S 9.3
30 Agosto 2026 20:20 tempo osservato: Sereno Sereno 20 64 1012 vento: Nord S 9.3
30 Agosto 2026 19:50 tempo osservato: Sereno Sereno 21 60 1012 vento: Nord SO 13
30 Agosto 2026 19:20 tempo osservato: Sereno Sereno 22 56 1012 vento: Nord SO 14.8
30 Agosto 2026 18:50 tempo osservato: Sereno Sereno 22 56 1012 vento: Nord SO 20.3
30 Agosto 2026 18:20 tempo osservato: Sereno Sereno 23 53 1012 vento: Nord SO 22.2
30 Agosto 2026 17:50 tempo osservato: Sereno Sereno 23 53 1012 vento: Nord SO 20.3
30 Agosto 2026 17:20 tempo osservato: Sereno Sereno 23 53 1012 vento: Nord SO 24
30 Agosto 2026 16:50 tempo osservato: Sereno Sereno 23 53 1012 vento: Nord SO 24
30 Agosto 2026 16:20 tempo osservato: Poco Nuvoloso Poco Nuvoloso 23 53 1012 vento: Nord O/SO 25.9
30 Agosto 2026 15:50 tempo osservato: Poco Nuvoloso Poco Nuvoloso 22 60 1012 vento: Nord SO 25.9
30 Agosto 2026 15:20 tempo osservato: Poco Nuvoloso Poco Nuvoloso 22 60 1012 vento: Nord SO 25.9
30 Agosto 2026 14:50 tempo osservato: Poco Nuvoloso Poco Nuvoloso 22 60 1012 vento: Nord SO 29.6
30 Agosto 2026 14:20 tempo osservato: Poco Nuvoloso Poco Nuvoloso 21 64 1012 vento: Nord O/SO 31.5
30 Agosto 2026 13:50 tempo osservato: Poco Nuvoloso Poco Nuvoloso 21 64 1012 vento: Nord O/SO 31.5
30 Agosto 2026 13:20 tempo osservato: Poco Nuvoloso Poco Nuvoloso 21 64 1012 vento: Nord SO 33.3
30 Agosto 2026 12:50 tempo osservato: Coperto Coperto 21 64 1012 vento: Nord O/SO 33.3
30 Agosto 2026 12:20 tempo osservato: Coperto Coperto 20 68 1012 vento: Nord O/SO 37
30 Agosto 2026 11:50 tempo osservato: Coperto Coperto 20 68 1012 vento: Nord SO 35.2
30 Agosto 2026 11:20 tempo osservato: Coperto Coperto 19 72 1012 vento: Nord SO 27.8
30 Agosto 2026 10:50 tempo osservato: Molto Nuvoloso Molto Nuvoloso 19 72 1012 vento: Nord SO 31.5
30 Agosto 2026 10:20 tempo osservato: Coperto Coperto 19 72 1011 vento: Nord SO 25.9
30 Agosto 2026 09:50 tempo osservato: Molto Nuvoloso Molto Nuvoloso 19 72 1011 vento: Nord SO 31.5
30 Agosto 2026 09:20 tempo osservato: Coperto Coperto 19 72 1011 vento: Nord SO 27.8
30 Agosto 2026 08:50 tempo osservato: Coperto Coperto 19 72 1010 vento: Nord SO 24
30 Agosto 2026 08:20 tempo osservato: Molto Nuvoloso Molto Nuvoloso 18 77 1010 vento: Nord SO 25.9
30 Agosto 2026 07:50 tempo osservato: Molto Nuvoloso Molto Nuvoloso 18 77 1010 vento: Nord SO 25.9